• In Deutschland
  • Länderverzeichnis
  • Für 7 Tage
  • Wassertemperatur
  • Satellitenkarten
  • Wetterkarte
  • Widgets
  • user-avatar
    Anmelden

    Stündliche Wetter Pocitelj

    Heute, 25 Februar, Sonntag

    Zeit Temperatur Niederschläge Wind Luftdruck Luftfeuchtigkeit
    00:00 +1°C° 0,1 mm 5 m/S 745 mmHg 77%
    01:00 0°C° 0 mm 4 m/S 744 mmHg 79%
    02:00 0°C° 0,2 mm 4 m/S 744 mmHg 79%
    03:00 0°C° 0,2 mm 5 m/S 744 mmHg 79%
    04:00 -1°C° 0,2 mm 5 m/S 744 mmHg 78%
    05:00 -1°C° 0,5 mm 5 m/S 744 mmHg 80%
    06:00 -1°C° 0,5 mm 5 m/S 744 mmHg 82%
    07:00 -3°C° 0 mm 6 m/S 744 mmHg 82%
    08:00 -3°C° 0,6 mm 6 m/S 744 mmHg 81%
    09:00 -3°C° 0,6 mm 6 m/S 744 mmHg 80%
    10:00 -2°C° 0,6 mm 5 m/S 744 mmHg 79%
    11:00 -1°C° 0,5 mm 5 m/S 744 mmHg 78%
    12:00 -1°C° 0,5 mm 5 m/S 744 mmHg 78%
    13:00 -2°C° 0 mm 6 m/S 744 mmHg 76%
    14:00 -1°C° 0,1 mm 5 m/S 744 mmHg 76%
    15:00 -2°C° 0,1 mm 5 m/S 744 mmHg 76%
    16:00 -2°C° 0,1 mm 5 m/S 744 mmHg 76%
    17:00 -4°C° 0,1 mm 5 m/S 744 mmHg 77%
    18:00 -4°C° 0,1 mm 5 m/S 744 mmHg 77%
    19:00 -5°C° 0,1 mm 5 m/S 744 mmHg 77%
    20:00 -6°C° 0 mm 5 m/S 743 mmHg 77%
    21:00 -6°C° 0 mm 5 m/S 743 mmHg 77%
    22:00 -7°C° 0 mm 5 m/S 743 mmHg 76%
    23:00 -7°C° 0 mm 5 m/S 743 mmHg 76%

    Morgen, 26 Februar, Montag

    Zeit Temperatur Niederschläge Wind Luftdruck Luftfeuchtigkeit
    00:00 -7°C° 0 mm 5 m/S 743 mmHg 76%
    01:00 -7°C° 0 mm 5 m/S 742 mmHg 75%
    02:00 -7°C° 0 mm 5 m/S 742 mmHg 75%
    03:00 -7°C° 0 mm 5 m/S 741 mmHg 75%
    04:00 -8°C° 0 mm 5 m/S 741 mmHg 74%
    05:00 -8°C° 0 mm 5 m/S 741 mmHg 74%
    06:00 -8°C° 0 mm 5 m/S 740 mmHg 74%
    07:00 -8°C° 0 mm 5 m/S 740 mmHg 74%
    08:00 -7°C° 0 mm 5 m/S 740 mmHg 73%
    09:00 -5°C° 0 mm 5 m/S 740 mmHg 72%
    10:00 -4°C° 0 mm 5 m/S 739 mmHg 71%
    11:00 -3°C° 0,1 mm 4 m/S 739 mmHg 71%
    12:00 -2°C° 0,1 mm 4 m/S 738 mmHg 70%
    13:00 -1°C° 0,1 mm 4 m/S 738 mmHg 70%
    14:00 -1°C° 0,3 mm 4 m/S 738 mmHg 73%
    15:00 -1°C° 0,3 mm 4 m/S 738 mmHg 76%
    16:00 -1°C° 0,3 mm 3 m/S 738 mmHg 80%
    17:00 -1°C° 0,5 mm 3 m/S 738 mmHg 83%
    18:00 -2°C° 0,5 mm 3 m/S 738 mmHg 86%
    19:00 -2°C° 0,5 mm 3 m/S 738 mmHg 89%
    20:00 -4°C° 0,3 mm 3 m/S 738 mmHg 88%
    21:00 -4°C° 0,3 mm 3 m/S 739 mmHg 88%
    22:00 -4°C° 0,3 mm 3 m/S 739 mmHg 88%
    23:00 -3°C° 0,1 mm 2 m/S 739 mmHg 87%

    übermorgen, 27 Februar, Dienstag

    Zeit Temperatur Niederschläge Wind Luftdruck Luftfeuchtigkeit
    00:00 -4°C° 0,1 mm 2 m/S 739 mmHg 87%
    01:00 -4°C° 0,1 mm 2 m/S 739 mmHg 86%
    02:00 -4°C° 0,1 mm 2 m/S 739 mmHg 86%
    03:00 -5°C° 0,1 mm 2 m/S 739 mmHg 85%
    04:00 -5°C° 0,1 mm 2 m/S 739 mmHg 85%
    05:00 -5°C° 0,1 mm 2 m/S 739 mmHg 85%
    06:00 -5°C° 0,1 mm 2 m/S 740 mmHg 85%
    07:00 -6°C° 0,1 mm 3 m/S 740 mmHg 85%
    08:00 -5°C° 0,1 mm 3 m/S 740 mmHg 82%
    09:00 -4°C° 0,1 mm 3 m/S 741 mmHg 80%
    10:00 -2°C° 0,1 mm 3 m/S 741 mmHg 77%
    11:00 -1°C° 0,1 mm 2 m/S 741 mmHg 74%
    12:00 +1°C° 0,1 mm 2 m/S 741 mmHg 72%
    13:00 +1°C° 0,1 mm 2 m/S 741 mmHg 69%
    14:00 +1°C° 0 mm 2 m/S 742 mmHg 67%
    15:00 +2°C° 0 mm 1 m/S 742 mmHg 65%
    16:00 +2°C° 0 mm 1 m/S 742 mmHg 62%
    17:00 +1°C° 0 mm 1 m/S 743 mmHg 66%
    18:00 -1°C° 0 mm 1 m/S 743 mmHg 70%
    19:00 -2°C° 0 mm 1 m/S 744 mmHg 73%
    20:00 -2°C° 0 mm 1 m/S 744 mmHg 75%
    21:00 -5°C° 0 mm 2 m/S 744 mmHg 77%
    22:00 -5°C° 0 mm 2 m/S 745 mmHg 78%
    23:00 -5°C° 0,1 mm 2 m/S 745 mmHg 79%

    28 Februar, Mittwoch

    Zeit Temperatur Niederschläge Wind Luftdruck Luftfeuchtigkeit
    00:00 -5°C° 0,1 mm 2 m/S 745 mmHg 80%
    01:00 -6°C° 0,1 mm 3 m/S 745 mmHg 80%
    02:00 -6°C° 0 mm 3 m/S 745 mmHg 81%
    03:00 -6°C° 0 mm 3 m/S 745 mmHg 81%
    04:00 -7°C° 0 mm 3 m/S 745 mmHg 81%
    05:00 -7°C° 0 mm 3 m/S 745 mmHg 81%
    06:00 -7°C° 0 mm 3 m/S 745 mmHg 80%
    07:00 -8°C° 0 mm 3 m/S 745 mmHg 80%
    08:00 -6°C° 0 mm 3 m/S 746 mmHg 76%
    09:00 -5°C° 0 mm 3 m/S 746 mmHg 72%
    10:00 -2°C° 0 mm 3 m/S 747 mmHg 68%
    11:00 -1°C° 0 mm 3 m/S 747 mmHg 65%
    12:00 -1°C° 0 mm 3 m/S 747 mmHg 62%
    13:00 0°C° 0 mm 3 m/S 747 mmHg 58%
    14:00 0°C° 0 mm 3 m/S 747 mmHg 60%
    15:00 0°C° 0 mm 3 m/S 748 mmHg 62%
    16:00 0°C° 0 mm 3 m/S 748 mmHg 63%
    17:00 -2°C° 0 mm 3 m/S 749 mmHg 68%
    18:00 -5°C° 0 mm 3 m/S 749 mmHg 72%
    19:00 -6°C° 0 mm 3 m/S 750 mmHg 77%
    20:00 -7°C° 0 mm 3 m/S 750 mmHg 77%
    21:00 -7°C° 0 mm 3 m/S 751 mmHg 77%
    22:00 -8°C° 0 mm 3 m/S 752 mmHg 78%
    23:00 -8°C° 0 mm 3 m/S 751 mmHg 76%

    1 März, Donnerstag

    Zeit Temperatur Niederschläge Wind Luftdruck Luftfeuchtigkeit
    00:00 -8°C° 0 mm 3 m/S 751 mmHg 75%
    01:00 -8°C° 0 mm 3 m/S 751 mmHg 74%
    02:00 -7°C° 0 mm 2 m/S 751 mmHg 72%
    03:00 -6°C° 0 mm 2 m/S 751 mmHg 70%
    04:00 -6°C° 0 mm 2 m/S 750 mmHg 68%
    05:00 -5°C° 0 mm 2 m/S 750 mmHg 67%
    06:00 -4°C° 0 mm 2 m/S 750 mmHg 66%
    07:00 -3°C° 0 mm 2 m/S 750 mmHg 65%
    08:00 -2°C° 0 mm 2 m/S 750 mmHg 62%
    09:00 +1°C° 0 mm 2 m/S 749 mmHg 60%
    10:00 +2°C° 0 mm 3 m/S 749 mmHg 57%
    11:00 +2°C° 0,2 mm 3 m/S 749 mmHg 63%
    12:00 +3°C° 0,2 mm 3 m/S 748 mmHg 70%
    13:00 +3°C° 0,2 mm 4 m/S 747 mmHg 76%
    14:00 +3°C° 0,4 mm 4 m/S 747 mmHg 79%
    15:00 +3°C° 0,4 mm 4 m/S 746 mmHg 82%
    16:00 +2°C° 0,4 mm 5 m/S 746 mmHg 86%
    17:00 +2°C° 0,5 mm 5 m/S 745 mmHg 87%
    18:00 +2°C° 0,5 mm 5 m/S 745 mmHg 89%
    19:00 +1°C° 0,5 mm 5 m/S 745 mmHg 90%
    20:00 +2°C° 0,9 mm 5 m/S 745 mmHg 91%
    21:00 +2°C° 0,9 mm 5 m/S 744 mmHg 91%
    22:00 +2°C° 0,9 mm 5 m/S 744 mmHg 92%
    23:00 +3°C° 1,1 mm 5 m/S 743 mmHg 93%

    2 März, Freitag

    Zeit Temperatur Niederschläge Wind Luftdruck Luftfeuchtigkeit
    00:00 +3°C° 1,1 mm 5 m/S 742 mmHg 94%
    01:00 +4°C° 1,1 mm 6 m/S 742 mmHg 94%
    02:00 +4°C° 1,9 mm 6 m/S 741 mmHg 95%
    03:00 +5°C° 1,9 mm 6 m/S 741 mmHg 95%
    04:00 +5°C° 1,9 mm 6 m/S 740 mmHg 96%
    05:00 +5°C° 2,8 mm 6 m/S 740 mmHg 96%
    06:00 +5°C° 2,8 mm 6 m/S 739 mmHg 96%
    07:00 +5°C° 2,8 mm 6 m/S 739 mmHg 96%
    08:00 +7°C° 4,2 mm 6 m/S 739 mmHg 96%
    09:00 +7°C° 4,2 mm 5 m/S 739 mmHg 97%
    10:00 +7°C° 4,2 mm 5 m/S 739 mmHg 97%
    11:00 +7°C° 3,2 mm 4 m/S 739 mmHg 97%
    12:00 +7°C° 3,2 mm 4 m/S 739 mmHg 97%
    13:00 +8°C° 3,2 mm 3 m/S 739 mmHg 97%
    14:00 +8°C° 1,4 mm 3 m/S 739 mmHg 97%
    15:00 +8°C° 1,4 mm 3 m/S 739 mmHg 97%
    16:00 +8°C° 1,4 mm 3 m/S 739 mmHg 96%
    17:00 +8°C° 0,6 mm 3 m/S 739 mmHg 96%
    18:00 +8°C° 0,6 mm 2 m/S 739 mmHg 96%
    19:00 +8°C° 0,6 mm 2 m/S 739 mmHg 95%
    20:00 +8°C° 0,2 mm 2 m/S 740 mmHg 95%
    21:00 +8°C° 0,2 mm 2 m/S 740 mmHg 95%
    22:00 +8°C° 0,2 mm 2 m/S 740 mmHg 95%
    23:00 +8°C° 0,1 mm 2 m/S 740 mmHg 94%
    Mehr zeigen